Regional Weather Roundup
Issued by NWS

Home | Current Version | Previous Version | Text Only | Print | Product List | Glossary On
Versions: 1 2 3 4 5 6 7 8 9 10 11 12 13 14 15 16 17 18 19 20 21 22 23 24 25 26 27
000
ASCA42 TJSJ 041410
RWRPR
PUERTO RICO/U.S. VIRGIN ISLANDS HOURLY WEATHER ROUNDUP
NATIONAL WEATHER SERVICE SAN JUAN PR
1000 AM AST SUN DEC 04 2016

PRZ001>002-007>008-010-041500-
PUERTO RICO

CITY           SKY/WX    TMP DP  RH WIND       PRES   REMARKS
SAN JUAN LMM   MOSUNNY   86  72  62 CALM      30.02R HX  92
AGUADILLA      SUNNY     82  73  74 CALM      30.03R
CEIBA          SUNNY     82  73  74 SE7       30.04R
$$

VIZ001>002-041500-
U.S. VIRGIN ISLANDS

CITY           SKY/WX    TMP DP  RH WIND       PRES   REMARKS
CHARLOTTE AMA  MOSUNNY   84  75  74 SE9       30.01S HX  92
CHRISTIANSTED  MOSUNNY   82  73  74 E8        30.02R
$$

HOURLY WEATHER ROUNDUP FOR THE NEWS MEDIA

CITY           SKY/WX    TMP DP  RH WIND       PRES   REMARKS
ORLANDO        SUNNY     70  62  76 E7        30.10S
NEW YORK       PTSUNNY   41  20  43 NW17      30.25R
NEWARK         PTSUNNY   40  23  50 NW9       30.24S WCI  34
CHICAGO        CLOUDY    33  26  75 E3        30.15F
HARTFORD       CLOUDY    37  22  54 VRB6      30.16S WCI  32
BOSTON         PTSUNNY   35  20  54 NW15G22   30.18S WCI  25
DALLAS         CLOUDY    49  46  90 N7        30.03R
PHILADELPHIA   PTSUNNY   43  25  49 NW3       30.26S
LOS ANGELES    CLEAR     47  32  56 SE3       30.07R
WASHINGTON DC  CLOUDY    38  27  64 NW5       30.29S WCI  34



USA.gov is the U.S. government's official web portal to all federal, state and local government web resources and services.